KK6MIG-13 Weather Reports


Display with metric or nautical units.
time (UTC)temp
F
wind
direction
speed
MPH
gust
MPH
rain 1hr
in
rain 24hr
in
rain mn
in
humidity
%
barometer
mb
20260503212025 59 242 7.0 12.0 0.00 0.00 0.00 13 1011.9
20260503211925 60 213 7.0 12.0 0.00 0.00 0.00 13 1012.0
20260503211825 60 228 7.0 11.0 0.00 0.00 0.00 11 1011.9
20260503211725 60 280 7.0 11.0 0.00 0.00 0.00 11 1012.0
20260503211624 60 232 7.0 11.0 0.00 0.00 0.00 8 1011.9
20260503211525 60 215 7.0 11.0 0.00 0.00 0.00 7 1011.9
20260503211425 60 219 6.0 11.0 0.00 0.00 0.00 7 1011.9
20260503211325 60 201 6.0 11.0 0.00 0.00 0.00 5 1011.9
20260503211225 60 199 7.0 11.0 0.00 0.00 0.00 5 1012.0
20260503211125 59 243 6.0 11.0 0.00 0.00 0.00 8 1012.0
20260503211024 59 219 7.0 11.0 0.00 0.00 0.00 9 1012.0
20260503210925 59 196 7.0 11.0 0.00 0.00 0.00 10 1012.0
20260503210824 59 207 7.0 11.0 0.00 0.00 0.00 10 1012.0
20260503210729 59 167 7.0 13.0 0.00 0.00 0.00 9 1012.0
20260503210725 59 223 7.0 13.0 0.00 0.00 0.00 13 1012.0
20260503210521 59 210 7.0 13.0 0.00 0.00 0.00 9 1012.0
20260503210421 59 271 7.0 13.0 0.00 0.00 0.00 8 1012.0
20260503210321 59 237 7.0 13.0 0.00 0.00 0.00 7 1012.0
20260503210229 59 196 7.0 15.0 0.00 0.00 0.00 4 1012.0
20260503210225 59 224 7.0 14.0 0.00 0.00 0.00 6 1012.0
20260503210021 59 221 7.0 15.0 0.00 0.00 0.00 1 1011.9
20260503205921 59 159 8.0 15.0 0.00 0.00 0.00 1 1012.0
20260503205821 59 217 8.0 15.0 0.00 0.00 0.00 1 1011.9
20260503205720 59 244 8.0 15.0 0.00 0.00 0.00 1 1011.9
20260503205621 59 140 8.0 15.0 0.00 0.00 0.00 1 1011.9
20260503205521 59 240 8.0 16.0 0.00 0.00 0.00 1 1011.9
20260503205429 59 234 8.0 16.0 0.00 0.00 0.00 1 1011.9
20260503205425 59 205 8.0 16.0 0.00 0.00 0.00 1 1011.9
20260503205220 59 236 8.0 16.0 0.00 0.00 0.00 1 1011.9
20260503205129 58 251 9.0 16.0 0.00 0.00 0.00 1 1011.9
20260503205125 58 222 9.0 16.0 0.00 0.00 0.00 1 1011.9
20260503204920 58 234 9.0 16.0 0.00 0.00 0.00 1 1011.9
20260503204820 58 276 9.0 16.0 0.00 0.00 0.00 1 1011.9
20260503204717 58 265 9.0 16.0 0.00 0.00 0.00 1 1011.9
20260503204625 58 226 9.0 15.0 0.00 0.00 0.00 1 1012.0
20260503204621 58 242 9.0 16.0 0.00 0.00 0.00 1 1011.9
20260503204417 58 200 9.0 15.0 0.00 0.00 0.00 1 1012.0
20260503204316 59 234 9.0 15.0 0.00 0.00 0.00 1 1012.0
20260503204216 59 234 9.0 15.0 0.00 0.00 0.00 1 1011.9
20260503204116 59 233 9.0 15.0 0.00 0.00 0.00 1 1011.9
20260503204017 59 284 8.0 15.0 0.00 0.00 0.00 1 1012.0
20260503203917 59 221 8.0 13.0 0.00 0.00 0.00 1 1011.9
20260503203817 58 234 8.0 13.0 0.00 0.00 0.00 1 1011.9
20260503203725 59 249 7.0 13.0 0.00 0.00 0.00 1 1012.0
20260503203721 59 294 8.0 13.0 0.00 0.00 0.00 1 1011.9
20260503203517 59 226 7.0 13.0 0.00 0.00 0.00 1 1011.9
20260503203417 59 211 7.0 13.0 0.00 0.00 0.00 1 1011.9
20260503203317 59 238 7.0 13.0 0.00 0.00 0.00 2 1012.0
20260503203217 59 217 7.0 13.0 0.00 0.00 0.00 5 1012.0
20260503203117 59 244 7.0 13.0 0.00 0.00 0.00 1 1012.0
20260503203017 59 171 7.0 13.0 0.00 0.00 0.00 1 1012.0
20260503202917 59 221 8.0 13.0 0.00 0.00 0.00 1 1012.0
20260503202813 59 256 7.0 14.0 0.00 0.00 0.00 1 1012.0
20260503202713 59 226 7.0 14.0 0.00 0.00 0.00 1 1011.9
20260503202612 59 224 7.0 14.0 0.00 0.00 0.00 1 1012.0
20260503202513 59 221 7.0 14.0 0.00 0.00 0.00 1 1011.9
20260503202413 59 254 7.0 14.0 0.00 0.00 0.00 1 1012.0
20260503202313 59 263 7.0 14.0 0.00 0.00 0.00 1 1012.0
20260503202213 59 219 6.0 14.0 0.00 0.00 0.00 1 1012.0
20260503202112 59 225 6.0 14.0 0.00 0.00 0.00 1 1012.0
20260503202013 59 265 6.0 14.0 0.00 0.00 0.00 1 1012.0
20260503201913 59 246 6.0 14.0 0.00 0.00 0.00 1 1012.0
20260503201813 59 202 6.0 13.0 0.00 0.00 0.00 1 1012.0
20260503201713 59 207 6.0 15.0 0.00 0.00 0.00 1 1012.0
20260503201611 59 186 7.0 15.0 0.00 0.00 0.00 1 1012.1
20260503201510 58 205 7.0 15.0 0.00 0.00 0.00 1 1012.1
20260503201411 58 220 7.0 15.0 0.00 0.00 0.00 1 1012.1
20260503201311 58 184 8.0 15.0 0.00 0.00 0.00 1 1012.1
20260503201211 58 215 8.0 15.0 0.00 0.00 0.00 1 1012.1
20260503201111 58 199 8.0 15.0 0.00 0.00 0.00 1 1012.1
20260503201011 58 230 8.0 15.0 0.00 0.00 0.00 1 1012.1
20260503200911 58 170 9.0 15.0 0.00 0.00 0.00 1 1012.1
20260503200810 58 215 9.0 15.0 0.00 0.00 0.00 1 1012.1
20260503200710 58 225 9.0 15.0 0.00 0.00 0.00 1 1012.1
20260503200611 58 219 9.0 15.0 0.00 0.00 0.00 1 1012.1
20260503200517 58 194 9.0 15.0 0.00 0.00 0.00 1 1012.1
20260503200513 58 226 9.0 15.0 0.00 0.00 0.00 1 1012.2
20260503200309 58 212 10.0 15.0 0.00 0.00 0.00 1 1012.1
20260503200208 58 188 10.0 15.0 0.00 0.00 0.00 1 1012.1
20260503200108 58 254 10.0 15.0 0.00 0.00 0.00 1 1012.1
20260503200008 58 252 10.0 15.0 0.00 0.00 0.00 1 1012.1
20260503195908 58 230 10.0 15.0 0.00 0.00 0.00 1 1012.1
20260503195808 58 234 10.0 15.0 0.00 0.00 0.00 1 1012.1
20260503195716 58 245 9.0 14.0 0.00 0.00 0.00 1 1012.1
20260503195711 58 248 9.0 15.0 0.00 0.00 0.00 1 1012.1
20260503195515 58 238 8.0 14.0 0.00 0.00 0.00 1 1012.1
20260503195511 58 224 8.0 14.0 0.00 0.00 0.00 1 1012.1
20260503195307 58 234 8.0 14.0 0.00 0.00 0.00 1 1012.1
20260503195207 58 287 8.0 15.0 0.00 0.00 0.00 1 1012.1
20260503195107 58 246 8.0 15.0 0.00 0.00 0.00 1 1012.2
20260503195006 58 200 8.0 15.0 0.00 0.00 0.00 1 1012.1
20260503194906 58 263 8.0 15.0 0.00 0.00 0.00 1 1012.1
20260503194806 58 215 8.0 15.0 0.00 0.00 0.00 1 1012.1
20260503194701 58 199 8.0 15.0 0.00 0.00 0.00 1 1012.1
20260503194609 58 225 8.0 15.0 0.00 0.00 0.00 1 1012.2
20260503194605 58 193 8.0 15.0 0.00 0.00 0.00 1 1012.2
20260503194401 58 283 8.0 15.0 0.00 0.00 0.00 1 1012.2
20260503194300 58 229 8.0 15.0 0.00 0.00 0.00 1 1012.2
20260503194155 58 214 7.0 13.0 0.00 0.00 0.00 1 1012.3
20260503194055 58 225 7.0 13.0 0.00 0.00 0.00 1 1012.2
20260503193953 58 258 7.0 13.0 0.00 0.00 0.00 1 1012.2
20260503193853 58 215 7.0 13.0 0.00 0.00 0.00 1 1012.2
20260503193751 58 215 7.0 13.0 0.00 0.00 0.00 1 1012.2
20260503193645 58 202 7.0 13.0 0.00 0.00 0.00 1 1012.3
20260503193544 58 198 7.0 13.0 0.00 0.00 0.00 1 1012.2
20260503193444 58 190 7.0 13.0 0.00 0.00 0.00 1 1012.2
20260503193345 58 228 7.0 15.0 0.00 0.00 0.00 1 1012.2
20260503193244 58 259 7.0 15.0 0.00 0.00 0.00 1 1012.2
20260503193138 58 236 7.0 15.0 0.00 0.00 0.00 1 1012.2
20260503193048 58 215 7.0 15.0 0.00 0.00 0.00 1 1012.3
20260503193043 58 215 7.0 15.0 0.00 0.00 0.00 1 1012.2
20260503192846 58 159 7.0 15.0 0.00 0.00 0.00 1 1012.3
20260503192738 58 238 7.0 15.0 0.00 0.00 0.00 1 1012.3
20260503192632 58 236 7.0 15.0 0.00 0.00 0.00 1 1012.3
20260503192532 58 207 7.0 15.0 0.00 0.00 0.00 1 1012.3
20260503192440 58 190 7.0 14.0 0.00 0.00 0.00 1 1012.2
20260503192436 58 223 7.0 15.0 0.00 0.00 0.00 1 1012.2
20260503192232 58 212 7.0 14.0 0.00 0.00 0.00 1 1012.2
20260503192133 58 210 8.0 14.0 0.00 0.00 0.00 1 1012.2
20260503192129 58 198 7.0 14.0 0.00 0.00 0.00 1 1012.2
20260503191924 58 219 8.0 14.0 0.00 0.00 0.00 1 1012.2
20260503191824 58 194 8.0 14.0 0.00 0.00 0.00 1 1012.2
20260503191724 58 205 8.0 14.0 0.00 0.00 0.00 1 1012.2
20260503191618 58 223 7.0 13.0 0.00 0.00 0.00 1 1012.2
20260503191518 58 227 7.0 12.0 0.00 0.00 0.00 1 1012.2
20260503191419 58 219 7.0 12.0 0.00 0.00 0.00 1 1012.3
20260503191319 58 209 7.0 13.0 0.00 0.00 0.00 1 1012.3
20260503191216 58 239 7.0 13.0 0.00 0.00 0.00 1 1012.3
20260503191111 58 194 7.0 13.0 0.00 0.00 0.00 1 1012.3
20260503191011 58 265 8.0 13.0 0.00 0.00 0.00 5 1012.3
20260503190910 59 223 8.0 13.0 0.00 0.00 0.00 3 1012.3
20260503190810 59 247 7.0 13.0 0.00 0.00 0.00 1 1012.3
20260503190710 59 190 7.0 13.0 0.00 0.00 0.00 1 1012.3
20260503190611 59 246 7.0 13.0 0.00 0.00 0.00 1 1012.3
20260503190511 59 215 7.0 13.0 0.00 0.00 0.00 4 1012.3
20260503190411 59 198 7.0 13.0 0.00 0.00 0.00 4 1012.2
20260503190310 59 239 7.0 13.0 0.00 0.00 0.00 2 1012.2
20260503190210 59 254 7.0 13.0 0.00 0.00 0.00 2 1012.2
20260503190110 59 265 7.0 13.0 0.00 0.00 0.00 6 1012.2
20260503190016 59 185 6.0 12.0 0.00 0.00 0.00 2 1012.2
20260503190012 59 254 6.0 13.0 0.00 0.00 0.00 5 1012.2
20260503185808 59 225 6.0 11.0 0.00 0.00 0.00 5 1012.2
20260503185707 59 142 6.0 11.0 0.00 0.00 0.00 4 1012.2
20260503185606 59 144 6.0 11.0 0.00 0.00 0.00 1 1012.2
20260503185505 59 165 6.0 11.0 0.00 0.00 0.00 1 1012.2
20260503185405 59 261 6.0 11.0 0.00 0.00 0.00 1 1012.2
20260503185305 59 253 6.0 11.0 0.00 0.00 0.00 1 1012.2
20260503185205 58 224 6.0 10.0 0.00 0.00 0.00 1 1012.2
20260503185104 58 225 6.0 10.0 0.00 0.00 0.00 1 1012.2
20260503185004 58 201 7.0 12.0 0.00 0.00 0.00 1 1012.2
20260503184859 58 213 7.0 12.0 0.00 0.00 0.00 1 1012.2
20260503184759 58 212 7.0 12.0 0.00 0.00 0.00 1 1012.2
20260503184658 58 196 7.0 12.0 0.00 0.00 0.00 1 1012.2
20260503184558 58 213 7.0 12.0 0.00 0.00 0.00 1 1012.2
20260503184457 58 140 7.0 12.0 0.00 0.00 0.00 1 1012.2
20260503184351 58 248 7.0 12.0 0.00 0.00 0.00 1 1012.2
20260503184251 58 236 7.0 12.0 0.00 0.00 0.00 1 1012.2
20260503184150 58 243 7.0 12.0 0.00 0.00 0.00 1 1012.1
20260503184050 58 228 7.0 12.0 0.00 0.00 0.00 1 1012.1
20260503183950 58 266 6.0 10.0 0.00 0.00 0.00 1 1012.1
20260503183845 58 186 6.0 10.0 0.00 0.00 0.00 1 1012.2
20260503183753 58 195 6.0 11.0 0.00 0.00 0.00 1 1012.1
20260503183748 58 210 6.0 10.0 0.00 0.00 0.00 1 1012.2
20260503183447 58 194 6.0 11.0 0.00 0.00 0.00 1 1012.1
20260503183443 58 169 6.0 11.0 0.00 0.00 0.00 1 1012.1
20260503183239 58 197 6.0 11.0 0.00 0.00 0.00 1 1012.1
20260503183138 58 198 6.0 11.0 0.00 0.00 0.00 1 1012.1
20260503183038 58 221 6.0 11.0 0.00 0.00 0.00 1 1012.1
20260503182938 58 227 6.0 11.0 0.00 0.00 0.00 1 1012.1
20260503182832 58 219 6.0 11.0 0.00 0.00 0.00 1 1012.1
20260503182732 58 197 6.0 11.0 0.00 0.00 0.00 1 1012.1
20260503182632 58 232 6.0 11.0 0.00 0.00 0.00 1 1012.1
20260503182533 58 226 6.0 11.0 0.00 0.00 0.00 1 1012.1
20260503182432 58 250 6.0 11.0 0.00 0.00 0.00 1 1012.1
20260503182326 58 228 6.0 10.0 0.00 0.00 0.00 1 1012.1
20260503182227 58 225 5.0 10.0 0.00 0.00 0.00 1 1012.1
20260503182127 58 259 6.0 10.0 0.00 0.00 0.00 1 1012.1
20260503182026 58 277 5.0 10.0 0.00 0.00 0.00 1 1012.2
20260503181929 58 198 5.0 9.0 0.00 0.00 0.00 1 1012.2
20260503181924 58 227 6.0 9.0 0.00 0.00 0.00 1 1012.1
20260503181720 58 185 6.0 10.0 0.00 0.00 0.00 1 1012.2
20260503181621 57 207 6.0 10.0 0.00 0.00 0.00 1 1012.1
20260503181520 57 186 6.0 10.0 0.00 0.00 0.00 1 1012.1
20260503181420 57 230 6.0 10.0 0.00 0.00 0.00 1 1012.1
20260503181214 56 200 6.0 10.0 0.00 0.00 0.00 1 1012.1
20260503181114 56 250 6.0 11.0 0.00 0.00 0.00 1 1012.0
20260503181014 56 262 6.0 11.0 0.00 0.00 0.00 1 1012.0
20260503180914 56 249 6.0 11.0 0.00 0.00 0.00 1 1012.0
20260503180808 56 237 6.0 11.0 0.00 0.00 0.00 1 1012.0
20260503180708 56 242 6.0 11.0 0.00 0.00 0.00 1 1012.1
20260503180608 56 246 6.0 11.0 0.00 0.00 0.00 1 1012.1
20260503180517 56 248 6.0 11.0 0.00 0.00 0.00 1 1012.0
20260503180409 56 248 6.0 11.0 0.00 0.00 0.00 1 1012.0
20260503180205 56 254 6.0 11.0 0.00 0.00 0.00 1 1012.0
20260503180104 56 226 6.0 10.0 0.00 0.00 0.00 1 1012.0
20260503180005 57 239 6.0 10.0 0.00 0.00 0.00 1 1012.0
20260503175902 57 263 6.0 10.0 0.00 0.00 0.00 1 1012.0
20260503175756 57 282 6.0 10.0 0.00 0.00 0.00 1 1012.0
20260503175656 57 269 6.0 10.0 0.00 0.00 0.00 1 1012.0
20260503175556 57 283 6.0 10.0 0.00 0.00 0.00 1 1012.0
20260503175457 57 246 6.0 10.0 0.00 0.00 0.00 1 1012.0
20260503175356 56 250 6.0 9.0 0.00 0.00 0.00 1 1012.0
20260503175250 56 275 6.0 11.0 0.00 0.00 0.00 1 1012.0
20260503175158 56 311 6.0 11.0 0.00 0.00 0.00 1 1012.1
20260503175154 56 259 6.0 11.0 0.00 0.00 0.00 1 1012.0
20260503174958 56 230 7.0 11.0 0.00 0.00 0.00 1 1012.0
20260503174954 56 276 6.0 11.0 0.00 0.00 0.00 1 1012.0
20260503174801 56 231 6.0 11.0 0.00 0.00 0.00 1 1012.0
20260503174757 56 267 6.0 11.0 0.00 0.00 0.00 1 1012.0
20260503174752 56 237 7.0 11.0 0.00 0.00 0.00 1 1012.0
20260503174456 55 299 6.0 11.0 0.00 0.00 0.00 1 1012.0
20260503174451 55 272 6.0 11.0 0.00 0.00 0.00 1 1012.0
20260503174343 55 267 6.0 10.0 0.00 0.00 0.00 1 1012.0
20260503174138 55 293 6.0 10.0 0.00 0.00 0.00 1 1012.0
20260503174038 55 289 6.0 11.0 0.00 0.00 0.00 1 1012.0
20260503173938 55 289 6.0 11.0 0.00 0.00 0.00 1 1012.1
20260503173838 55 267 7.0 11.0 0.00 0.00 0.00 1 1012.1
20260503173732 55 286 7.0 11.0 0.00 0.00 0.00 1 1012.1
20260503173633 55 263 7.0 11.0 0.00 0.00 0.00 1 1012.1
20260503173532 55 258 7.0 11.0 0.00 0.00 0.00 1 1012.1
20260503173447 55 230 7.0 11.0 0.00 0.00 0.00 1 1012.2
20260503173443 55 217 7.0 11.0 0.00 0.00 0.00 1 1012.1
20260503173335 55 289 7.0 11.0 0.00 0.00 0.00 1 1012.1
20260503173026 56 239 7.0 11.0 0.00 0.00 0.00 1 1012.1
20260503172934 56 222 6.0 11.0 0.00 0.00 0.00 1 1012.0
20260503172930 56 273 7.0 11.0 0.00 0.00 0.00 1 1012.1
20260503172720 56 244 6.0 11.0 0.00 0.00 0.00 1 1012.0
20260503172620 56 234 6.0 11.0 0.00 0.00 0.00 1 1012.1
20260503172520 56 198 7.0 11.0 0.00 0.00 0.00 1 1012.0
20260503172420 56 253 7.0 12.0 0.00 0.00 0.00 1 1012.0
20260503172320 56 225 7.0 12.0 0.00 0.00 0.00 1 1012.1
20260503172217 56 208 7.0 12.0 0.00 0.00 0.00 1 1012.1
20260503172117 56 245 7.0 12.0 0.00 0.00 0.00 1 1012.0
20260503172016 56 246 7.0 12.0 0.00 0.00 0.00 1 1012.0
20260503171916 56 215 7.0 12.0 0.00 0.00 0.00 1 1012.0
20260503171814 56 195 7.0 12.0 0.00 0.00 0.00 1 1012.1
20260503171711 56 215 8.0 12.0 0.00 0.00 0.00 1 1012.0
20260503171611 56 257 8.0 12.0 0.00 0.00 0.00 1 1012.1
20260503171510 56 252 7.0 12.0 0.00 0.00 0.00 1 1012.0
20260503171410 56 238 7.0 12.0 0.00 0.00 0.00 1 1012.0
20260503171308 56 230 7.0 12.0 0.00 0.00 0.00 1 1012.0
20260503171203 56 240 7.0 12.0 0.00 0.00 0.00 1 1012.0
20260503171102 56 247 6.0 12.0 0.00 0.00 0.00 1 1012.0
20260503171002 56 269 6.0 12.0 0.00 0.00 0.00 1 1012.0
20260503170902 56 257 6.0 12.0 0.00 0.00 0.00 1 1012.0
20260503170802 56 234 6.0 12.0 0.00 0.00 0.00 1 1012.0
20260503170656 56 0 6.0 12.0 0.00 0.00 0.00 1 1012.0
20260503170604 56 204 6.0 10.0 0.00 0.00 0.00 1 1012.0
20260503170600 56 224 6.0 10.0 0.00 0.00 0.00 1 1012.1
20260503170356 56 221 6.0 10.0 0.00 0.00 0.00 1 1012.0
20260503170256 56 232 6.0 10.0 0.00 0.00 0.00 1 1012.0
20260503170151 56 220 6.0 10.0 0.00 0.00 0.00 1 1012.0
20260503160144 55 213 5.0 9.0 0.00 0.00 0.00 1 1011.8
20260503151013 54 192 1.0 3.0 0.00 0.00 0.00 1 1011.4
20260503151009 54 192 2.0 3.0 0.00 0.00 0.00 1 1011.3
20260503150804 54 192 1.0 3.0 0.00 0.00 0.00 1 1011.4
20260503150704 54 192 2.0 3.0 0.00 0.00 0.00 1 1011.3
20260503150602 54 192 2.0 4.0 0.00 0.00 0.00 1 1011.3
20260503150502 54 192 2.0 4.0 0.00 0.00 0.00 1 1011.3
20260503150401 54 196 1.0 4.0 0.00 0.00 0.00 1 1011.3
20260503150302 54 196 1.0 4.0 0.00 0.00 0.00 1 1011.3
20260503150200 54 196 1.0 4.0 0.00 0.00 0.00 1 1011.3
20260503140251 54 239 6.0 10.0 0.00 0.00 0.00 1 1010.5
20260503140151 54 219 6.0 10.0 0.00 0.00 0.00 1 1010.5
20260503131321 54 244 6.0 10.0 0.00 0.00 0.00 1 1009.8
20260503131218 54 247 5.0 10.0 0.00 0.00 0.00 1 1009.9
20260503131115 54 244 5.0 10.0 0.00 0.00 0.00 1 1009.8
20260503131016 54 240 5.0 8.0 0.00 0.00 0.00 1 1009.8
20260503130916 54 244 5.0 8.0 0.00 0.00 0.00 1 1009.7
20260503130716 54 271 5.0 8.0 0.00 0.00 0.00 1 1009.8
20260503130711 54 252 4.0 8.0 0.00 0.00 0.00 1 1009.8
20260503130517 54 250 4.0 8.0 0.00 0.00 0.00 1 1009.8
20260503130512 54 243 4.0 8.0 0.00 0.00 0.00 1 1009.8
20260503130307 54 245 4.0 8.0 0.00 0.00 0.00 1 1009.9
20260503130207 54 243 4.0 8.0 0.00 0.00 0.00 1 1009.9
20260503130106 54 234 4.0 8.0 0.00 0.00 0.00 1 1009.9
20260503120205 54 272 4.0 8.0 0.00 0.00 0.00 1 1009.8
20260503110758 53 245 5.0 9.0 0.00 0.00 0.00 1 1009.8
20260503110658 53 236 5.0 9.0 0.00 0.00 0.00 1 1009.9
20260503110558 53 284 5.0 9.0 0.00 0.00 0.00 1 1009.8
20260503110458 53 273 5.0 9.0 0.00 0.00 0.00 1 1009.9
20260503110355 53 234 5.0 9.0 0.00 0.00 0.00 1 1009.8
20260503110251 53 278 5.0 9.0 0.00 0.00 0.00 1 1009.9
20260503110150 53 275 5.0 9.0 0.00 0.00 0.00 1 1009.9
20260503100238 53 273 5.0 12.0 0.00 0.00 0.00 1 1009.8
20260503100135 53 259 6.0 12.0 0.00 0.00 0.00 1 1009.8
20260503090445 53 292 7.0 13.0 0.00 0.00 0.00 1 1010.2
20260503090441 53 256 7.0 13.0 0.00 0.00 0.00 1 1010.1
20260503090238 53 266 7.0 13.0 0.00 0.00 0.00 1 1010.2
20260503090137 53 271 7.0 13.0 0.00 0.00 0.00 1 1010.2
20260503081623 53 261 6.0 12.0 0.00 0.00 0.00 1 1010.7
20260503081515 53 261 5.0 12.0 0.00 0.00 0.00 1 1010.7
20260503081319 53 269 6.0 11.0 0.00 0.00 0.00 1 1010.8
20260503081315 53 257 5.0 12.0 0.00 0.00 0.00 1 1010.8
20260503081111 53 259 6.0 11.0 0.00 0.00 0.00 1 1010.9
20260503081011 53 271 6.0 11.0 0.00 0.00 0.00 1 1010.9
20260503080911 53 285 6.0 11.0 0.00 0.00 0.00 1 1010.8
20260503080811 53 277 7.0 12.0 0.00 0.00 0.00 1 1010.8
20260503080710 53 309 7.0 12.0 0.00 0.00 0.00 1 1010.8
20260503080611 53 263 7.0 12.0 0.00 0.00 0.00 1 1010.7
20260503080509 53 254 7.0 12.0 0.00 0.00 0.00 1 1010.7
20260503080409 53 275 7.0 12.0 0.00 0.00 0.00 1 1010.8
20260503080308 53 273 7.0 13.0 0.00 0.00 0.00 1 1010.7
20260503080209 53 294 7.0 13.0 0.00 0.00 0.00 1 1010.7
20260503080109 53 273 7.0 13.0 0.00 0.00 0.00 1 1010.7
20260503072801 53 270 6.0 10.0 0.00 0.00 0.00 1 1010.6
20260503072701 53 287 6.0 13.0 0.00 0.00 0.00 1 1010.7
20260503072600 53 279 6.0 13.0 0.00 0.00 0.00 1 1010.6
20260503072500 53 279 6.0 13.0 0.00 0.00 0.00 1 1010.6
20260503072401 53 285 6.0 13.0 0.00 0.00 0.00 1 1010.6
20260503072301 53 272 6.0 13.0 0.00 0.00 0.00 1 1010.6
20260503072201 53 264 6.0 13.0 0.00 0.00 0.00 1 1010.6
20260503072101 53 263 6.0 13.0 0.00 0.00 0.00 1 1010.7
20260503072000 53 281 6.0 13.0 0.00 0.00 0.00 1 1010.7
20260503071901 53 281 5.0 13.0 0.00 0.00 0.00 1 1010.7
20260503071800 53 263 5.0 13.0 0.00 0.00 0.00 1 1010.7
20260503071700 53 261 5.0 12.0 0.00 0.00 0.00 1 1010.7
20260503071601 53 266 5.0 11.0 0.00 0.00 0.00 1 1010.7
20260503071501 53 287 5.0 11.0 0.00 0.00 0.00 1 1010.7
20260503071401 53 275 6.0 11.0 0.00 0.00 0.00 1 1010.7
20260503071301 53 285 6.0 10.0 0.00 0.00 0.00 1 1010.7
20260503071209 53 287 6.0 10.0 0.00 0.00 0.00 1 1010.7
20260503071101 53 278 6.0 10.0 0.00 0.00 0.00 1 1010.7
20260503070856 53 267 6.0 10.0 0.00 0.00 0.00 1 1010.7
20260503070756 53 276 6.0 10.0 0.00 0.00 0.00 1 1010.7
20260503070656 53 270 6.0 10.0 0.00 0.00 0.00 1 1010.7
20260503070605 53 265 6.0 10.0 0.00 0.00 0.00 1 1010.7
20260503070601 53 272 6.0 10.0 0.00 0.00 0.00 1 1010.7
20260503070356 53 289 6.0 10.0 0.00 0.00 0.00 1 1010.7
20260503070256 53 277 5.0 10.0 0.00 0.00 0.00 1 1010.7
20260503070156 53 273 5.0 10.0 0.00 0.00 0.00 1 1010.7
20260503060327 54 242 5.0 10.0 0.00 0.00 0.00 1 1010.9
20260503060228 54 292 6.0 10.0 0.00 0.00 0.00 1 1010.8
20260503060124 54 274 6.0 10.0 0.00 0.00 0.00 1 1010.9
20260503055121 54 290 7.0 10.0 0.00 0.00 0.00 1 1011.0
20260503055021 54 281 6.0 10.0 0.00 0.00 0.00 1 1011.0
20260503054918 54 255 6.0 10.0 0.00 0.00 0.00 1 1011.0
20260503054818 54 273 6.0 12.0 0.00 0.00 0.00 1 1011.1
20260503054718 54 261 7.0 12.0 0.00 0.00 0.00 1 1011.1
20260503054618 54 301 6.0 12.0 0.00 0.00 0.00 1 1011.1
20260503054518 54 277 6.0 12.0 0.00 0.00 0.00 1 1011.1
20260503054418 54 244 6.0 12.0 0.00 0.00 0.00 1 1011.1
20260503054318 54 254 5.0 12.0 0.00 0.00 0.00 1 1011.1
20260503054218 54 240 5.0 12.0 0.00 0.00 0.00 1 1011.1
20260503054118 54 230 5.0 12.0 0.00 0.00 0.00 1 1011.1
20260503054018 54 231 5.0 12.0 0.00 0.00 0.00 1 1011.1
20260503053918 54 274 5.0 12.0 0.00 0.00 0.00 1 1011.2
20260503053818 54 251 5.0 10.0 0.00 0.00 0.00 1 1011.2
20260503053718 54 259 5.0 10.0 0.00 0.00 0.00 1 1011.2
20260503053617 54 256 5.0 10.0 0.00 0.00 0.00 1 1011.2
20260503053517 54 232 5.0 10.0 0.00 0.00 0.00 1 1011.2
20260503053418 54 269 6.0 10.0 0.00 0.00 0.00 1 1011.3
20260503053318 54 265 6.0 12.0 0.00 0.00 0.00 1 1011.2
20260503053218 54 257 7.0 12.0 0.00 0.00 0.00 1 1011.3
20260503053118 54 214 7.0 12.0 0.00 0.00 0.00 1 1011.2
20260503053013 54 247 7.0 12.0 0.00 0.00 0.00 1 1011.2
20260503052913 54 251 7.0 12.0 0.00 0.00 0.00 1 1011.2
20260503052814 54 287 8.0 13.0 0.00 0.00 0.00 1 1011.2
20260503052714 54 268 8.0 13.0 0.00 0.00 0.00 1 1011.2
20260503052614 54 239 8.0 13.0 0.00 0.00 0.00 1 1011.2
20260503052513 54 259 8.0 13.0 0.00 0.00 0.00 1 1011.2
20260503052414 54 267 8.0 13.0 0.00 0.00 0.00 1 1011.2
20260503052314 54 276 8.0 13.0 0.00 0.00 0.00 1 1011.2
20260503052214 54 244 8.0 13.0 0.00 0.00 0.00 1 1011.2
20260503052114 54 262 8.0 13.0 0.00 0.00 0.00 1 1011.2
20260503052014 54 264 8.0 13.0 0.00 0.00 0.00 1 1011.2
20260503051914 54 284 8.0 13.0 0.00 0.00 0.00 1 1011.2
20260503051814 54 257 8.0 13.0 0.00 0.00 0.00 1 1011.2
20260503051715 54 274 8.0 13.0 0.00 0.00 0.00 1 1011.1
20260503051614 54 278 8.0 13.0 0.00 0.00 0.00 1 1011.2
20260503051513 54 277 8.0 14.0 0.00 0.00 0.00 1 1011.2
20260503051413 54 284 8.0 14.0 0.00 0.00 0.00 1 1011.2
20260503051313 54 283 8.0 14.0 0.00 0.00 0.00 1 1011.2
20260503051214 54 282 8.0 14.0 0.00 0.00 0.00 1 1011.2
20260503051110 54 243 8.0 14.0 0.00 0.00 0.00 1 1011.2
20260503051010 54 278 8.0 14.0 0.00 0.00 0.00 1 1011.2
20260503050910 54 267 7.0 14.0 0.00 0.00 0.00 1 1011.2
20260503050810 54 274 8.0 14.0 0.00 0.00 0.00 1 1011.2
20260503050709 54 265 7.0 14.0 0.00 0.00 0.00 1 1011.2
20260503050610 54 267 7.0 14.0 0.00 0.00 0.00 1 1011.2
20260503050509 54 261 7.0 13.0 0.00 0.00 0.00 1 1011.2
20260503050409 54 252 7.0 13.0 0.00 0.00 0.00 1 1011.2
20260503050309 54 236 7.0 13.0 0.00 0.00 0.00 1 1011.2
20260503050209 54 258 7.0 13.0 0.00 0.00 0.00 1 1011.1
20260503050110 54 273 7.0 13.0 0.00 0.00 0.00 1 1011.2
20260503050010 54 281 7.0 13.0 0.00 0.00 0.00 1 1011.2
20260503045910 54 279 7.0 13.0 0.00 0.00 0.00 1 1011.2
20260503045810 54 257 6.0 13.0 0.00 0.00 0.00 1 1011.2
20260503045710 54 252 6.0 13.0 0.00 0.00 0.00 1 1011.2
20260503045610 54 263 6.0 13.0 0.00 0.00 0.00 1 1011.2
20260503045509 54 251 6.0 13.0 0.00 0.00 0.00 1 1011.1
20260503045410 54 246 6.0 12.0 0.00 0.00 0.00 1 1011.1
20260503045310 54 275 6.0 12.0 0.00 0.00 0.00 1 1011.1
20260503045204 54 263 6.0 12.0 0.00 0.00 0.00 1 1011.1
20260503045104 54 277 6.0 12.0 0.00 0.00 0.00 1 1011.1
20260503045003 54 282 6.0 12.0 0.00 0.00 0.00 1 1011.1
20260503044903 54 284 6.0 13.0 0.00 0.00 0.00 1 1011.1
20260503044803 54 258 7.0 15.0 0.00 0.00 0.00 1 1011.1
20260503044658 54 321 7.0 15.0 0.00 0.00 0.00 1 1011.2
20260503044557 54 285 7.0 15.0 0.00 0.00 0.00 1 1011.1
20260503044458 54 274 7.0 15.0 0.00 0.00 0.00 1 1011.1
20260503044356 54 301 8.0 15.0 0.00 0.00 0.00 1 1011.1
20260503044254 54 261 8.0 15.0 0.00 0.00 0.00 1 1011.1
20260503044153 54 255 8.0 15.0 0.00 0.00 0.00 1 1011.1
20260503044054 54 267 8.0 15.0 0.00 0.00 0.00 1 1011.1
20260503043954 54 313 8.0 15.0 0.00 0.00 0.00 1 1011.1
20260503043854 54 273 8.0 15.0 0.00 0.00 0.00 1 1011.2
20260503043754 54 289 8.0 13.0 0.00 0.00 0.00 1 1011.1
20260503043653 54 254 7.0 13.0 0.00 0.00 0.00 1 1011.2
20260503043551 54 268 7.0 13.0 0.00 0.00 0.00 1 1011.1
20260503043452 54 281 7.0 13.0 0.00 0.00 0.00 1 1011.1
20260503043352 54 273 7.0 12.0 0.00 0.00 0.00 1 1011.1
20260503043252 54 270 7.0 12.0 0.00 0.00 0.00 1 1011.1
20260503043152 54 266 7.0 12.0 0.00 0.00 0.00 1 1011.0
20260503043051 54 253 7.0 11.0 0.00 0.00 0.00 1 1011.0
20260503042951 54 299 7.0 11.0 0.00 0.00 0.00 1 1011.0
20260503042852 54 263 7.0 12.0 0.00 0.00 0.00 1 1011.0
20260503042752 54 269 7.0 12.0 0.00 0.00 0.00 1 1011.0
20260503042652 54 263 7.0 12.0 0.00 0.00 0.00 1 1011.0
20260503042550 54 262 7.0 12.0 0.00 0.00 0.00 1 1011.1
20260503042445 54 225 7.0 13.0 0.00 0.00 0.00 1 1011.0
20260503042345 54 281 7.0 13.0 0.00 0.00 0.00 1 1011.0
20260503042245 54 284 8.0 13.0 0.00 0.00 0.00 1 1011.0
20260503042146 54 311 7.0 13.0 0.00 0.00 0.00 1 1011.0
20260503042045 54 271 7.0 13.0 0.00 0.00 0.00 1 1011.0
20260503041938 54 266 7.0 13.0 0.00 0.00 0.00 1 1011.0
20260503041837 54 275 7.0 13.0 0.00 0.00 0.00 1 1011.0
20260503041737 54 346 8.0 13.0 0.00 0.00 0.00 1 1011.0
20260503041637 54 261 8.0 13.0 0.00 0.00 0.00 1 1011.0
20260503041537 54 276 8.0 13.0 0.00 0.00 0.00 1 1011.0
20260503041434 54 273 8.0 13.0 0.00 0.00 0.00 1 1011.0
20260503041333 54 246 7.0 13.0 0.00 0.00 0.00 1 1011.0
20260503041233 54 211 7.0 12.0 0.00 0.00 0.00 1 1011.0
20260503041132 54 272 7.0 12.0 0.00 0.00 0.00 1 1011.0
20260503041040 54 287 7.0 12.0 0.00 0.00 0.00 1 1011.0
20260503041036 54 282 7.0 12.0 0.00 0.00 0.00 1 1011.0
20260503040832 54 256 7.0 12.0 0.00 0.00 0.00 1 1011.0
20260503040731 54 306 7.0 12.0 0.00 0.00 0.00 1 1011.0
20260503040631 54 270 7.0 12.0 0.00 0.00 0.00 1 1010.9
20260503040532 54 279 7.0 12.0 0.00 0.00 0.00 1 1010.9
20260503040432 54 263 7.0 12.0 0.00 0.00 0.00 1 1010.9
20260503040332 54 283 7.0 11.0 0.00 0.00 0.00 1 1010.9
20260503040231 54 254 7.0 11.0 0.00 0.00 0.00 1 1011.0
20260503040131 54 272 7.0 12.0 0.00 0.00 0.00 1 1011.0
20260503040030 54 267 7.0 12.0 0.00 0.00 0.00 1 1011.0
20260503035930 54 293 8.0 14.0 0.00 0.00 0.00 1 1011.0
20260503035827 54 269 8.0 14.0 0.00 0.00 0.00 1 1011.0
20260503035728 54 272 8.0 14.0 0.00 0.00 0.00 1 1010.9
20260503035628 54 265 8.0 14.0 0.00 0.00 0.00 1 1010.9
20260503035527 54 272 8.0 14.0 0.00 0.00 0.00 1 1010.9
20260503035427 54 273 9.0 14.0 0.00 0.00 0.00 1 1010.8
20260503035327 54 297 9.0 14.0 0.00 0.00 0.00 1 1010.9
20260503035221 54 271 9.0 14.0 0.00 0.00 0.00 1 1010.8
20260503035121 54 285 9.0 14.0 0.00 0.00 0.00 1 1010.8
20260503035022 54 275 9.0 14.0 0.00 0.00 0.00 1 1010.8
20260503034922 54 270 9.0 14.0 0.00 0.00 0.00 1 1010.8
20260503034821 54 281 9.0 14.0 0.00 0.00 0.00 1 1010.8
20260503034717 54 282 8.0 14.0 0.00 0.00 0.00 1 1010.8
20260503034617 54 248 8.0 13.0 0.00 0.00 0.00 1 1010.8
20260503034532 54 269 8.0 13.0 0.00 0.00 0.00 1 1010.8
20260503034528 54 286 8.0 13.0 0.00 0.00 0.00 1 1010.8
20260503034523 54 271 8.0 13.0 0.00 0.00 0.00 1 1010.8
20260503034209 54 277 8.0 13.0 0.00 0.00 0.00 1 1010.8
20260503034109 54 254 8.0 13.0 0.00 0.00 0.00 1 1010.8
20260503034009 54 280 8.0 13.0 0.00 0.00 0.00 1 1010.8
20260503033917 54 257 8.0 14.0 0.00 0.00 0.00 1 1010.7
20260503033913 54 257 8.0 14.0 0.00 0.00 0.00 1 1010.8
20260503033704 54 291 8.0 14.0 0.00 0.00 0.00 1 1010.7
20260503033603 54 263 8.0 14.0 0.00 0.00 0.00 1 1010.7
20260503033503 54 264 8.0 14.0 0.00 0.00 0.00 1 1010.7
20260503033403 54 280 8.0 14.0 0.00 0.00 0.00 1 1010.6
20260503033303 54 260 8.0 14.0 0.00 0.00 0.00 1 1010.6
20260503033200 54 265 8.0 14.0 0.00 0.00 0.00 1 1010.6
20260503033057 54 263 8.0 15.0 0.00 0.00 0.00 1 1010.7
20260503032958 54 265 8.0 15.0 0.00 0.00 0.00 1 1010.6
20260503032905 54 294 9.0 15.0 0.00 0.00 0.00 1 1010.6
20260503032901 54 265 8.0 15.0 0.00 0.00 0.00 1 1010.6
20260503032705 54 251 9.0 15.0 0.00 0.00 0.00 1 1010.6
20260503032352 54 276 8.0 15.0 0.00 0.00 0.00 1 1010.6
20260503032251 54 269 8.0 15.0 0.00 0.00 0.00 1 1010.6
20260503032145 54 270 8.0 15.0 0.00 0.00 0.00 1 1010.6
20260503032045 54 292 8.0 16.0 0.00 0.00 0.00 1 1010.5
20260503031945 54 290 8.0 16.0 0.00 0.00 0.00 1 1010.5
20260503031845 54 246 8.0 16.0 0.00 0.00 0.00 1 1010.5
20260503031745 54 281 8.0 16.0 0.00 0.00 0.00 1 1010.4
20260503031640 54 275 8.0 16.0 0.00 0.00 0.00 1 1010.4
20260503031548 54 292 8.0 16.0 0.00 0.00 0.00 1 1010.4
20260503031544 54 277 8.0 16.0 0.00 0.00 0.00 1 1010.4
20260503031340 54 292 9.0 16.0 0.00 0.00 0.00 1 1010.3
20260503031238 54 286 9.0 16.0 0.00 0.00 0.00 1 1010.2
20260503031134 54 286 8.0 16.0 0.00 0.00 0.00 1 1010.3
20260503031034 54 206 8.0 14.0 0.00 0.00 0.00 1 1010.3
20260503030934 54 284 8.0 14.0 0.00 0.00 0.00 1 1010.3
20260503030833 54 268 8.0 14.0 0.00 0.00 0.00 1 1010.3
20260503030733 54 284 8.0 14.0 0.00 0.00 0.00 1 1010.3
20260503030628 54 295 8.0 14.0 0.00 0.00 0.00 1 1010.2
20260503030527 54 284 9.0 14.0 0.00 0.00 0.00 1 1010.2
20260503030427 54 259 9.0 14.0 0.00 0.00 0.00 1 1010.2
20260503030327 54 273 9.0 14.0 0.00 0.00 0.00 1 1010.2
20260503030227 54 296 8.0 14.0 0.00 0.00 0.00 1 1010.2
20260503030121 54 266 9.0 14.0 0.00 0.00 0.00 1 1010.2
20260503030021 54 284 8.0 14.0 0.00 0.00 0.00 1 1010.2
20260503025921 54 281 8.0 14.0 0.00 0.00 0.00 1 1010.2
20260503025822 54 279 9.0 16.0 0.00 0.00 0.00 1 1010.2
20260503025721 54 265 9.0 16.0 0.00 0.00 0.00 1 1010.2
20260503025615 54 276 9.0 16.0 0.00 0.00 0.00 1 1010.2
20260503025515 54 290 9.0 16.0 0.00 0.00 0.00 1 1010.2
20260503025416 54 270 9.0 16.0 0.00 0.00 0.00 1 1010.2
20260503025315 54 286 9.0 16.0 0.00 0.00 0.00 1 1010.2
20260503025214 54 283 9.0 16.0 0.00 0.00 0.00 1 1010.3
20260503025110 54 301 9.0 16.0 0.00 0.00 0.00 1 1010.2
20260503025010 54 295 9.0 16.0 0.00 0.00 0.00 1 1010.2
20260503024909 54 281 9.0 16.0 0.00 0.00 0.00 1 1010.2
20260503024809 54 270 9.0 14.0 0.00 0.00 0.00 1 1010.2
20260503024709 54 241 9.0 14.0 0.00 0.00 0.00 1 1010.2
20260503024606 54 265 9.0 14.0 0.00 0.00 0.00 1 1010.2
20260503024505 54 271 8.0 14.0 0.00 0.00 0.00 1 1010.2
20260503024405 54 258 8.0 14.0 0.00 0.00 0.00 1 1010.2
20260503024305 54 281 9.0 14.0 0.00 0.00 0.00 1 1010.3
20260503024203 54 274 9.0 14.0 0.00 0.00 0.00 1 1010.2
20260503024057 54 285 8.0 14.0 0.00 0.00 0.00 1 1010.2
20260503023957 54 281 9.0 14.0 0.00 0.00 0.00 1 1010.2
20260503023913 54 306 9.0 14.0 0.00 0.00 0.00 1 1010.2
20260503023909 54 259 9.0 14.0 0.00 0.00 0.00 1 1010.2
20260503023904 54 282 9.0 14.0 0.00 0.00 0.00 1 1010.2
20260503023451 54 298 8.0 14.0 0.00 0.00 0.00 1 1010.2
20260503023351 54 281 8.0 14.0 0.00 0.00 0.00 1 1010.2
20260503023251 54 264 8.0 14.0 0.00 0.00 0.00 1 1010.3
20260503023151 54 278 8.0 14.0 0.00 0.00 0.00 1 1010.2
20260503023046 54 273 8.0 14.0 0.00 0.00 0.00 1 1010.2
20260503022945 54 264 9.0 14.0 0.00 0.00 0.00 1 1010.2
20260503022845 54 311 9.0 15.0 0.00 0.00 0.00 1 1010.3
20260503022754 54 260 9.0 15.0 0.00 0.00 0.00 1 1010.3
20260503022749 54 306 9.0 15.0 0.00 0.00 0.00 1 1010.3
20260503022539 54 285 8.0 15.0 0.00 0.00 0.00 1 1010.3
20260503022439 54 254 8.0 15.0 0.00 0.00 0.00 1 1010.2
20260503022339 54 252 8.0 15.0 0.00 0.00 0.00 1 1010.3
20260503022239 54 288 8.0 15.0 0.00 0.00 0.00 1 1010.2
20260503022139 54 240 8.0 15.0 0.00 0.00 0.00 1 1010.2
20260503022033 54 269 8.0 15.0 0.00 0.00 0.00 1 1010.2
20260503021933 54 260 8.0 15.0 0.00 0.00 0.00 1 1010.3
20260503021833 54 265 8.0 14.0 0.00 0.00 0.00 1 1010.2
20260503021749 54 248 9.0 14.0 0.00 0.00 0.00 1 1010.2
20260503021745 54 292 9.0 14.0 0.00 0.00 0.00 1 1010.3
20260503021532 54 250 9.0 14.0 0.00 0.00 0.00 1 1010.2
20260503021328 54 271 9.0 14.0 0.00 0.00 0.00 1 1010.2
20260503021227 54 213 9.0 14.0 0.00 0.00 0.00 1 1010.3
20260503021127 54 253 9.0 14.0 0.00 0.00 0.00 1 1010.3
20260503021023 54 264 9.0 14.0 0.00 0.00 0.00 1 1010.3
20260503020924 54 238 9.0 15.0 0.00 0.00 0.00 1 1010.3
20260503020824 54 242 9.0 15.0 0.00 0.00 0.00 1 1010.4
20260503020724 54 242 8.0 15.0 0.00 0.00 0.00 1 1010.3
20260503020620 54 262 8.0 15.0 0.00 0.00 0.00 1 1010.4
20260503020515 54 258 8.0 15.0 0.00 0.00 0.00 1 1010.4
20260503020415 54 253 8.0 15.0 0.00 0.00 0.00 1 1010.4
20260503020316 54 216 8.0 15.0 0.00 0.00 0.00 1 1010.4
20260503020216 55 209 8.0 15.0 0.00 0.00 0.00 1 1010.4
20260503020118 55 238 8.0 15.0 0.00 0.00 0.00 1 1010.4
20260503020113 55 246 8.0 15.0 0.00 0.00 0.00 1 1010.4
20260503015909 55 255 8.0 15.0 0.00 0.00 0.00 1 1010.4
20260503015809 55 243 7.0 15.0 0.00 0.00 0.00 1 1010.4
20260503015709 55 276 8.0 15.0 0.00 0.00 0.00 1 1010.4
20260503015609 55 261 8.0 15.0 0.00 0.00 0.00 1 1010.4
20260503015503 55 243 8.0 15.0 0.00 0.00 0.00 1 1010.4
20260503015411 55 230 8.0 14.0 0.00 0.00 0.00 1 1010.4
20260503015407 55 270 8.0 14.0 0.00 0.00 0.00 1 1010.4
20260503015204 55 311 8.0 14.0 0.00 0.00 0.00 1 1010.5
20260503015102 55 291 8.0 14.0 0.00 0.00 0.00 1 1010.5
20260503014957 55 258 8.0 14.0 0.00 0.00 0.00 1 1010.4
20260503014906 55 217 8.0 14.0 0.00 0.00 0.00 1 1010.5
20260503014901 55 294 8.0 14.0 0.00 0.00 0.00 1 1010.5
20260503014657 55 236 8.0 14.0 0.00 0.00 0.00 1 1010.4
20260503014557 55 264 8.0 14.0 0.00 0.00 0.00 1 1010.4
20260503014453 55 246 8.0 14.0 0.00 0.00 0.00 1 1010.4
20260503014353 55 279 8.0 14.0 0.00 0.00 0.00 1 1010.4
20260503014254 55 230 8.0 14.0 0.00 0.00 0.00 1 1010.4
20260503014153 55 280 8.0 14.0 0.00 0.00 0.00 1 1010.4
20260503014050 55 280 8.0 14.0 0.00 0.00 0.00 1 1010.5
20260503013946 55 259 8.0 14.0 0.00 0.00 0.00 1 1010.5
20260503013846 55 252 8.0 14.0 0.00 0.00 0.00 1 1010.5
20260503013745 55 256 8.0 16.0 0.00 0.00 0.00 1 1010.5
20260503013645 55 257 9.0 16.0 0.00 0.00 0.00 1 1010.5
20260503013545 55 274 9.0 16.0 0.00 0.00 0.00 1 1010.5
20260503013439 55 259 9.0 16.0 0.00 0.00 0.00 1 1010.5
20260503013339 55 273 9.0 16.0 0.00 0.00 0.00 1 1010.6
20260503013239 55 277 9.0 16.0 0.00 0.00 0.00 1 1010.5
20260503013139 55 280 9.0 16.0 0.00 0.00 0.00 1 1010.6
20260503013039 55 252 9.0 16.0 0.00 0.00 0.00 1 1010.5
20260503012935 55 262 9.0 16.0 0.00 0.00 0.00 1 1010.6
20260503012834 55 283 9.0 16.0 0.00 0.00 0.00 1 1010.6
20260503012734 55 281 9.0 16.0 0.00 0.00 0.00 1 1010.6
20260503012633 55 275 9.0 16.0 0.00 0.00 0.00 1 1010.6
20260503012533 55 263 9.0 16.0 0.00 0.00 0.00 1 1010.6
20260503012428 55 281 9.0 16.0 0.00 0.00 0.00 1 1010.6
20260503012327 55 283 9.0 16.0 0.00 0.00 0.00 1 1010.6
20260503012227 55 232 8.0 16.0 0.00 0.00 0.00 1 1010.6
20260503012127 55 290 9.0 15.0 0.00 0.00 0.00 1 1010.6
20260503012027 55 284 9.0 17.0 0.00 0.00 0.00 1 1010.6
20260503011924 55 297 9.0 17.0 0.00 0.00 0.00 1 1010.6
20260503011821 55 267 9.0 17.0 0.00 0.00 0.00 1 1010.6
20260503011721 55 265 9.0 17.0 0.00 0.00 0.00 1 1010.6
20260503011621 55 299 9.0 17.0 0.00 0.00 0.00 1 1010.6
20260503011521 55 240 9.0 17.0 0.00 0.00 0.00 1 1010.6
20260503011415 55 261 9.0 17.0 0.00 0.00 0.00 1 1010.6
20260503011315 55 238 9.0 17.0 0.00 0.00 0.00 1 1010.6
20260503011215 55 279 9.0 17.0 0.00 0.00 0.00 1 1010.6
20260503011115 55 286 8.0 15.0 0.00 0.00 0.00 1 1010.6
20260503011015 55 265 8.0 14.0 0.00 0.00 0.00 1 1010.6
20260503010910 55 257 8.0 14.0 0.00 0.00 0.00 1 1010.6
20260503010809 55 228 8.0 14.0 0.00 0.00 0.00 1 1010.6
20260503010718 55 271 8.0 16.0 0.00 0.00 0.00 1 1010.6
20260503010714 55 255 9.0 14.0 0.00 0.00 0.00 1 1010.7
20260503010509 55 286 8.0 16.0 0.00 0.00 0.00 1 1010.6
20260503010403 55 327 8.0 16.0 0.00 0.00 0.00 1 1010.7
20260503010302 55 315 8.0 16.0 0.00 0.00 0.00 1 1010.6
20260503010204 55 251 9.0 16.0 0.00 0.00 0.00 1 1010.7
20260503010103 55 294 9.0 16.0 0.00 0.00 0.00 1 1010.7
20260503010003 55 303 9.0 16.0 0.00 0.00 0.00 1 1010.6
20260503005857 55 260 9.0 16.0 0.00 0.00 0.00 1 1010.6
20260503005757 55 273 8.0 16.0 0.00 0.00 0.00 1 1010.6
20260503005657 56 254 8.0 16.0 0.00 0.00 0.00 1 1010.7
20260503005557 56 258 8.0 16.0 0.00 0.00 0.00 1 1010.6
20260503005457 56 259 8.0 16.0 0.00 0.00 0.00 1 1010.7
20260503005351 56 262 8.0 15.0 0.00 0.00 0.00 1 1010.7
20260503005251 56 246 8.0 15.0 0.00 0.00 0.00 1 1010.7
20260503005151 56 246 8.0 15.0 0.00 0.00 0.00 1 1010.7
20260503005059 55 277 9.0 15.0 0.00 0.00 0.00 1 1010.7
20260503005055 55 259 9.0 15.0 0.00 0.00 0.00 1 1010.7
20260503004845 55 275 9.0 15.0 0.00 0.00 0.00 1 1010.7
20260503004805 55 251 9.0 16.0 0.00 0.00 0.00 1 1010.7
20260503004801 55 263 9.0 15.0 0.00 0.00 0.00 1 1010.7
20260503004653 55 229 9.0 15.0 0.00 0.00 0.00 1 1010.7
20260503004343 56 264 9.0 16.0 0.00 0.00 0.00 1 1010.7
20260503004243 55 274 9.0 16.0 0.00 0.00 0.00 1 1010.7
20260503004143 56 233 9.0 16.0 0.00 0.00 0.00 1 1010.7
20260503004043 56 238 8.0 16.0 0.00 0.00 0.00 1 1010.7
20260503003943 56 248 8.0 16.0 0.00 0.00 0.00 1 1010.7
20260503003843 56 252 8.0 16.0 0.00 0.00 0.00 1 1010.7
20260503003743 56 261 8.0 16.0 0.00 0.00 0.00 1 1010.7
20260503003643 56 245 8.0 16.0 0.00 0.00 0.00 1 1010.7
20260503003543 56 228 8.0 14.0 0.00 0.00 0.00 1 1010.7
20260503003442 56 221 8.0 15.0 0.00 0.00 0.00 1 1010.7
20260503003355 56 281 8.0 15.0 0.00 0.00 0.00 1 1010.7
20260503003247 56 290 8.0 15.0 0.00 0.00 0.00 1 1010.7
20260503003043 56 261 9.0 15.0 0.00 0.00 0.00 1 1010.7
20260503002943 56 289 9.0 15.0 0.00 0.00 0.00 1 1010.7
20260503002843 56 265 9.0 15.0 0.00 0.00 0.00 1 1010.7
20260503002743 56 239 9.0 15.0 0.00 0.00 0.00 1 1010.8
20260503002636 56 252 8.0 15.0 0.00 0.00 0.00 1 1010.8
20260503002536 56 273 8.0 15.0 0.00 0.00 0.00 1 1010.8
20260503002437 56 281 8.0 15.0 0.00 0.00 0.00 1 1010.8
20260503002338 56 263 8.0 15.0 0.00 0.00 0.00 1 1010.8
20260503002237 56 279 8.0 15.0 0.00 0.00 0.00 1 1010.8
20260503002131 56 291 8.0 14.0 0.00 0.00 0.00 1 1010.8
20260503002031 56 244 8.0 14.0 0.00 0.00 0.00 1 1010.8
20260503001931 56 296 8.0 14.0 0.00 0.00 0.00 1 1010.8
20260503001831 56 305 9.0 14.0 0.00 0.00 0.00 1 1010.9
20260503001731 56 262 9.0 15.0 0.00 0.00 0.00 1 1010.8
20260503001627 56 269 10.0 15.0 0.00 0.00 0.00 1 1010.9
20260503001536 56 242 9.0 15.0 0.00 0.00 0.00 1 1010.9
20260503001531 56 258 9.0 15.0 0.00 0.00 0.00 1 1010.9
20260503001327 56 276 9.0 15.0 0.00 0.00 0.00 1 1010.9
20260503001227 56 247 9.0 15.0 0.00 0.00 0.00 1 1010.9
20260503001127 56 260 10.0 15.0 0.00 0.00 0.00 1 1010.9
20260503001027 56 259 10.0 15.0 0.00 0.00 0.00 1 1010.9
20260503000935 56 244 10.0 16.0 0.00 0.00 0.00 1 1010.9
20260503000930 56 243 10.0 16.0 0.00 0.00 0.00 1 1010.9
20260503000727 56 254 10.0 16.0 0.00 0.00 0.00 1 1010.9
20260503000627 56 272 9.0 16.0 0.00 0.00 0.00 1 1010.9
20260503000528 56 244 9.0 16.0 0.00 0.00 0.00 1 1010.9
20260503000430 56 244 9.0 16.0 0.00 0.00 0.00 1 1010.8
20260503000327 56 233 9.0 16.0 0.00 0.00 0.00 1 1010.8
20260503000227 56 245 9.0 16.0 0.00 0.00 0.00 1 1010.8
20260503000127 56 257 10.0 16.0 0.00 0.00 0.00 1 1010.9
20260503000027 56 279 9.0 16.0 0.00 0.00 0.00 1 1010.9
20260502235922 56 248 9.0 15.0 0.00 0.00 0.00 1 1010.9
20260502235831 56 227 9.0 15.0 0.00 0.00 0.00 1 1010.9
20260502235827 56 279 9.0 15.0 0.00 0.00 0.00 1 1010.9
20260502235622 56 306 10.0 15.0 0.00 0.00 0.00 1 1010.9
20260502235523 56 315 10.0 15.0 0.00 0.00 0.00 1 1010.9
20260502235422 56 274 10.0 15.0 0.00 0.00 0.00 1 1010.9
20260502235323 56 275 10.0 15.0 0.00 0.00 0.00 1 1011.0
20260502235223 56 248 10.0 16.0 0.00 0.00 0.00 1 1010.9
20260502235123 56 265 10.0 16.0 0.00 0.00 0.00 1 1010.9
20260502235023 56 242 10.0 16.0 0.00 0.00 0.00 1 1010.9
20260502234923 56 281 10.0 16.0 0.00 0.00 0.00 1 1010.9
20260502234823 56 288 10.0 16.0 0.00 0.00 0.00 1 1010.9
20260502234723 56 248 10.0 16.0 0.00 0.00 0.00 1 1010.9
20260502234622 56 257 10.0 16.0 0.00 0.00 0.00 1 1010.9
20260502234522 56 261 10.0 16.0 0.00 0.00 0.00 1 1011.0
20260502234423 56 212 11.0 16.0 0.00 0.00 0.00 1 1010.9
20260502234323 56 272 11.0 16.0 0.00 0.00 0.00 1 1011.0
20260502234223 56 269 11.0 16.0 0.00 0.00 0.00 1 1011.0
20260502234123 56 234 11.0 17.0 0.00 0.00 0.00 1 1011.0
20260502234023 56 217 11.0 17.0 0.00 0.00 0.00 1 1011.0
20260502233922 56 248 11.0 17.0 0.00 0.00 0.00 1 1011.0
20260502233823 56 248 11.0 17.0 0.00 0.00 0.00 1 1011.0
20260502233723 56 240 11.0 17.0 0.00 0.00 0.00 1 1011.0
20260502233623 56 230 11.0 17.0 0.00 0.00 0.00 1 1011.0
20260502233523 56 239 11.0 17.0 0.00 0.00 0.00 1 1011.0
20260502233423 56 245 11.0 17.0 0.00 0.00 0.00 1 1011.0
20260502233323 56 265 11.0 17.0 0.00 0.00 0.00 1 1011.1
20260502233223 56 238 11.0 17.0 0.00 0.00 0.00 1 1011.1
20260502233122 56 225 10.0 16.0 0.00 0.00 0.00 1 1011.0
20260502233017 56 257 11.0 16.0 0.00 0.00 0.00 1 1011.1
20260502232917 56 229 11.0 15.0 0.00 0.00 0.00 1 1011.1
20260502232817 56 244 10.0 15.0 0.00 0.00 0.00 1 1011.1
20260502232716 56 254 10.0 15.0 0.00 0.00 0.00 1 1011.2
20260502232617 56 240 10.0 15.0 0.00 0.00 0.00 1 1011.1
20260502232517 56 238 10.0 15.0 0.00 0.00 0.00 1 1011.2
20260502232417 56 254 10.0 15.0 0.00 0.00 0.00 1 1011.1
20260502232317 56 251 10.0 15.0 0.00 0.00 0.00 1 1011.2
20260502232217 56 252 10.0 15.0 0.00 0.00 0.00 1 1011.2
20260502232117 56 220 10.0 15.0 0.00 0.00 0.00 1 1011.2
20260502232016 56 235 10.0 15.0 0.00 0.00 0.00 1 1011.2
20260502231917 56 225 10.0 15.0 0.00 0.00 0.00 1 1011.2
20260502231815 56 239 10.0 15.0 0.00 0.00 0.00 1 1011.2
20260502231715 56 242 10.0 15.0 0.00 0.00 0.00 1 1011.3
20260502231615 56 256 10.0 15.0 0.00 0.00 0.00 1 1011.2
20260502231515 56 234 10.0 16.0 0.00 0.00 0.00 1 1011.3
20260502231415 56 259 10.0 16.0 0.00 0.00 0.00 1 1011.3
20260502231315 56 238 10.0 16.0 0.00 0.00 0.00 1 1011.3
20260502231215 56 249 10.0 16.0 0.00 0.00 0.00 1 1011.3
20260502231124 56 213 10.0 16.0 0.00 0.00 0.00 1 1011.3
20260502231119 56 247 10.0 16.0 0.00 0.00 0.00 1 1011.3
20260502230915 56 237 10.0 16.0 0.00 0.00 0.00 1 1011.3
20260502230814 56 241 10.0 16.0 0.00 0.00 0.00 1 1011.4
20260502230715 56 271 10.0 16.0 0.00 0.00 0.00 1 1011.4
20260502230624 56 238 9.0 15.0 0.00 0.00 0.00 1 1011.4
20260502230620 56 269 10.0 16.0 0.00 0.00 0.00 1 1011.4
20260502230415 56 230 9.0 15.0 0.00 0.00 0.00 1 1011.4
20260502230315 56 240 9.0 15.0 0.00 0.00 0.00 1 1011.4
20260502230215 56 253 9.0 15.0 0.00 0.00 0.00 1 1011.4
20260502230115 56 255 8.0 14.0 0.00 0.00 0.00 1 1011.4
20260502230015 56 240 9.0 14.0 0.00 0.00 0.00 1 1011.4
20260502225911 56 227 9.0 14.0 0.00 0.00 0.00 1 1011.5
20260502225811 56 244 8.0 14.0 0.00 0.00 0.00 1 1011.5
20260502225719 56 277 8.0 16.0 0.00 0.00 0.00 1 1011.5
20260502225715 56 218 9.0 16.0 0.00 0.00 0.00 1 1011.5
20260502225511 56 240 9.0 16.0 0.00 0.00 0.00 1 1011.6
20260502225411 56 279 9.0 16.0 0.00 0.00 0.00 1 1011.6
20260502225311 56 269 9.0 16.0 0.00 0.00 0.00 1 1011.6
20260502225211 56 279 9.0 16.0 0.00 0.00 0.00 1 1011.6
20260502225111 56 252 9.0 16.0 0.00 0.00 0.00 1 1011.7
20260502225032 56 223 9.0 16.0 0.00 0.00 0.00 1 1011.7
20260502225028 56 251 9.0 16.0 0.00 0.00 0.00 1 1011.7
20260502224920 56 272 9.0 16.0 0.00 0.00 0.00 1 1011.7
20260502224611 56 279 9.0 16.0 0.00 0.00 0.00 1 1011.7
20260502224511 56 279 9.0 16.0 0.00 0.00 0.00 1 1011.8
20260502224411 56 232 9.0 16.0 0.00 0.00 0.00 1 1011.7
20260502224310 56 252 9.0 16.0 0.00 0.00 0.00 1 1011.8
20260502224211 56 285 9.0 17.0 0.00 0.00 0.00 1 1011.8
20260502224111 56 242 9.0 17.0 0.00 0.00 0.00 1 1011.7
20260502224007 56 216 9.0 17.0 0.00 0.00 0.00 1 1011.8
20260502223907 56 296 10.0 17.0 0.00 0.00 0.00 1 1011.8
20260502223806 56 281 10.0 17.0 0.00 0.00 0.00 1 1011.8
20260502223707 56 273 10.0 17.0 0.00 0.00 0.00 1 1011.8
20260502223607 56 231 9.0 17.0 0.00 0.00 0.00 1 1011.8
20260502223507 56 233 9.0 17.0 0.00 0.00 0.00 1 1011.8
20260502223407 56 245 9.0 17.0 0.00 0.00 0.00 1 1011.8
20260502223306 56 232 8.0 17.0 0.00 0.00 0.00 1 1011.9
20260502223207 56 250 8.0 15.0 0.00 0.00 0.00 1 1011.8
20260502223107 56 265 8.0 15.0 0.00 0.00 0.00 1 1011.8
20260502223007 56 267 8.0 14.0 0.00 0.00 0.00 1 1011.8
20260502222907 56 277 8.0 14.0 0.00 0.00 0.00 1 1011.8
20260502222806 56 259 8.0 14.0 0.00 0.00 0.00 1 1011.9
20260502222719 56 260 8.0 14.0 0.00 0.00 0.00 1 1011.9
20260502222611 56 255 9.0 14.0 0.00 0.00 0.00 1 1011.9
20260502222407 56 219 10.0 17.0 0.00 0.00 0.00 1 1012.0
20260502222307 56 257 10.0 17.0 0.00 0.00 0.00 1 1012.0
20260502222207 56 205 10.0 17.0 0.00 0.00 0.00 1 1012.0
20260502222115 56 248 10.0 17.0 0.00 0.00 0.00 1 1012.0
20260502222007 56 282 10.0 17.0 0.00 0.00 0.00 1 1012.0
20260502221803 56 223 10.0 17.0 0.00 0.00 0.00 1 1012.1
20260502221703 56 258 10.0 17.0 0.00 0.00 0.00 1 1012.0
20260502221603 56 240 10.0 17.0 0.00 0.00 0.00 1 1012.1
20260502221503 56 237 10.0 17.0 0.00 0.00 0.00 1 1012.1
20260502221403 56 244 10.0 16.0 0.00 0.00 0.00 1 1012.2
20260502221303 56 234 9.0 15.0 0.00 0.00 0.00 1 1012.1
20260502221202 56 260 10.0 15.0 0.00 0.00 0.00 1 1012.1
20260502221102 56 240 10.0 15.0 0.00 0.00 0.00 1 1012.2
20260502221003 56 269 10.0 14.0 0.00 0.00 0.00 1 1012.1
20260502220903 56 273 10.0 14.0 0.00 0.00 0.00 1 1012.2
20260502220803 56 259 10.0 14.0 0.00 0.00 0.00 1 1012.2
20260502220703 56 254 10.0 14.0 0.00 0.00 0.00 1 1012.2
20260502220602 56 261 10.0 14.0 0.00 0.00 0.00 1 1012.2
20260502220502 56 232 9.0 14.0 0.00 0.00 0.00 1 1012.2
20260502220403 56 249 9.0 14.0 0.00 0.00 0.00 1 1012.2
20260502220303 56 261 9.0 14.0 0.00 0.00 0.00 1 1012.3
20260502220156 56 242 9.0 14.0 0.00 0.00 0.00 1 1012.3
20260502220057 56 260 9.0 14.0 0.00 0.00 0.00 1 1012.3
20260502215957 56 250 9.0 14.0 0.00 0.00 0.00 1 1012.2
20260502215857 56 213 9.0 14.0 0.00 0.00 0.00 1 1012.2
20260502215756 56 255 9.0 14.0 0.00 0.00 0.00 1 1012.3
20260502215656 56 211 9.0 14.0 0.00 0.00 0.00 1 1012.3
20260502215557 56 250 8.0 13.0 0.00 0.00 0.00 1 1012.3
20260502215503 56 265 8.0 13.0 0.00 0.00 0.00 1 1012.2
20260502215459 56 262 8.0 13.0 0.00 0.00 0.00 1 1012.2
20260502215255 56 232 8.0 13.0 0.00 0.00 0.00 1 1012.3
20260502215153 56 298 9.0 14.0 0.00 0.00 0.00 1 1012.3
20260502215052 56 269 9.0 14.0 0.00 0.00 0.00 1 1012.2
20260502214951 56 226 9.0 14.0 0.00 0.00 0.00 1 1012.3
20260502214851 56 223 9.0 14.0 0.00 0.00 0.00 1 1012.3
20260502214751 56 231 9.0 14.0 0.00 0.00 0.00 1 1012.2
20260502214650 56 217 9.0 14.0 0.00 0.00 0.00 1 1012.2
20260502214550 56 171 9.0 14.0 0.00 0.00 0.00 1 1012.2
20260502214450 56 252 10.0 14.0 0.00 0.00 0.00 1 1012.2
20260502214351 56 268 10.0 15.0 0.00 0.00 0.00 1 1012.3
20260502214251 56 243 10.0 15.0 0.00 0.00 0.00 1 1012.2
20260502214158 56 218 10.0 17.0 0.00 0.00 0.00 1 1012.3
20260502214154 56 238 10.0 17.0 0.00 0.00 0.00 1 1012.3
20260502213944 56 243 10.0 17.0 0.00 0.00 0.00 1 1012.3
20260502213853 56 221 10.0 17.0 0.00 0.00 0.00 1 1012.3
20260502213848 56 219 10.0 17.0 0.00 0.00 0.00 1 1012.3
20260502213645 56 224 10.0 17.0 0.00 0.00 0.00 1 1012.3
20260502213544 56 252 11.0 17.0 0.00 0.00 0.00 1 1012.3
20260502213447 56 232 11.0 19.0 0.00 0.00 0.00 1 1012.3
20260502213443 56 238 11.0 19.0 0.00 0.00 0.00 1 1012.2
20260502213249 56 233 11.0 19.0 0.00 0.00 0.00 1 1012.3
20260502213141 56 258 11.0 19.0 0.00 0.00 0.00 1 1012.3
20260502212933 56 222 11.0 19.0 0.00 0.00 0.00 1 1012.3
20260502212831 56 232 11.0 19.0 0.00 0.00 0.00 1 1012.3
20260502212730 56 234 11.0 19.0 0.00 0.00 0.00 1 1012.3
20260502212631 56 240 11.0 19.0 0.00 0.00 0.00 1 1012.3
20260502212529 56 234 10.0 19.0 0.00 0.00 0.00 1 1012.3
20260502212422 56 312 11.0 16.0 0.00 0.00 0.00 1 1012.3
20260502212331 56 225 10.0 16.0 0.00 0.00 0.00 1 1012.4
20260502212326 56 293 11.0 16.0 0.00 0.00 0.00 1 1012.3
20260502212121 56 221 11.0 16.0 0.00 0.00 0.00 1 1012.4